Montgomery, NY

7:54 AM EDT on March 27, 2017 (GMT -0400)
Orange County

Weather History for KMGJ - November, 2012

Change the Weather History Date:

Wednesday, November 28, 2012

  Actual Average (KSWF) Record (KSWF)
Temperature  
Mean Temperature 30 °F -  
Max Temperature 37 °F 44 °F 63 °F (1984)
Min Temperature 23 °F 28 °F 11 °F (1982)
Degree Days  
Heating Degree Days 35    
Moisture  
Dew Point 26 °F    
Average Humidity 83    
Maximum Humidity 100    
Minimum Humidity 57    
Precipitation  
Precipitation 0.00 in - - ()
Sea Level Pressure  
Sea Level Pressure 30.22 in    
Wind  
Wind Speed 2 mph (West)    
Max Wind Speed 9 mph    
Max Gust Speed 17 mph    
Visibility 7 miles    
Events Fog    
Averages and records for this station are not official NWS values.
T = Trace of Precipitation, MM = Missing Value Source: NWS Daily Summary

Daily Weather History Graph

Daily Weather History Graph

Search for Another Location

Airport or City:

Trip Planner

Search our weather history database for the weather conditions in past years. The results will help you decide how hot, cold, wet, or windy it might be!

Date:

Astronomy

Nov. 28, 2012 Rise Set
Actual Time 7:01 AM EST 4:28 PM EST
Civil Twilight 6:30 AM EST 4:59 PM EST
Nautical Twilight 5:56 AM EST 5:33 PM EST
Astronomical Twilight 5:23 AM EST 6:07 PM EST
Moon 4:41 PM EST (11/28) 6:56 AM EST (11/28)
Length of Visible Light 10h 28m
Length of Day
9h 27m
Full, 100% of the Moon is Illuminated
Nov 28
Full
Dec 6
Last Quarter
Dec 13
New
Dec 20
First Quarter
Dec 28
Full

Hourly Weather History & Observations

Time (EST) Temp. Windchill Dew Point Humidity Pressure Visibility Wind Dir Wind Speed Gust Speed Precip Events Conditions
12:54 AM 33.1 °F 30.0 °F 30.9 °F 92% 30.21 in 7.0 mi North 3.5 mph - N/A   Overcast
1:54 AM 33.1 °F - 30.9 °F 92% 30.19 in 5.0 mi Calm Calm - N/A   Overcast
2:54 AM 33.1 °F - 30.9 °F 92% 30.22 in 8.0 mi Calm Calm - N/A   Overcast
3:54 AM 32.0 °F 28.7 °F 30.0 °F 92% 30.21 in 5.0 mi NE 3.5 mph - N/A   Overcast
4:54 AM 30.9 °F - 28.9 °F 92% 30.20 in 4.0 mi Calm Calm - N/A   Mostly Cloudy
5:54 AM 30.9 °F - 28.9 °F 92% 30.21 in 4.0 mi Calm Calm - N/A   Overcast
6:26 AM 30.2 °F - 28.4 °F 93% 30.20 in 1.5 mi Calm Calm - N/A   Mostly Cloudy
6:33 AM 30.2 °F - 28.4 °F 93% 30.20 in 0.8 mi Calm Calm - N/A   Mostly Cloudy
6:44 AM 28.4 °F - 26.6 °F 93% 30.20 in 0.2 mi Calm Calm - N/A Fog Light Freezing Fog
6:54 AM 28.0 °F - 27.0 °F 96% 30.22 in 0.2 mi Calm Calm - N/A Fog Light Freezing Fog
7:54 AM 27.0 °F - 26.1 °F 96% 30.23 in 0.2 mi Calm Calm - N/A Fog Light Freezing Fog
8:54 AM 28.9 °F - 28.0 °F 96% 30.24 in 0.5 mi Calm Calm - N/A Fog Light Freezing Fog
9:15 AM 30.2 °F - 28.4 °F 93% 30.23 in 1.5 mi Calm Calm - N/A   Partly Cloudy
9:19 AM 30.2 °F - 30.2 °F 100% 30.23 in 3.0 mi Calm Calm - N/A   Partly Cloudy
9:54 AM 30.9 °F 27.5 °F 27.0 °F 85% 30.24 in 10.0 mi WSW 3.5 mph - N/A   Mostly Cloudy
10:54 AM 35.1 °F 32.2 °F 27.0 °F 72% 30.23 in 10.0 mi SSW 3.5 mph - N/A   Overcast
11:54 AM 37.0 °F 31.6 °F 25.0 °F 62% 30.20 in 10.0 mi NW 6.9 mph - N/A   Overcast
12:54 PM 37.0 °F 31.0 °F 24.1 °F 59% 30.19 in 10.0 mi WNW 8.1 mph - N/A   Mostly Cloudy
1:54 PM 36.0 °F 29.0 °F 21.9 °F 57% 30.18 in 10.0 mi West 9.2 mph 17.3 mph N/A   Overcast
2:54 PM 36.0 °F 29.0 °F 21.9 °F 57% 30.18 in 10.0 mi West 9.2 mph 16.1 mph N/A   Overcast
3:54 PM 35.1 °F 30.1 °F 21.0 °F 57% 30.19 in 10.0 mi West 5.8 mph - N/A   Mostly Cloudy
4:54 PM 32.0 °F 28.7 °F 21.0 °F 64% 30.21 in 10.0 mi West 3.5 mph - N/A   Clear
5:54 PM 28.9 °F 25.2 °F 21.9 °F 75% 30.22 in 10.0 mi WSW 3.5 mph - N/A   Partly Cloudy
6:54 PM 25.0 °F - 21.9 °F 88% 30.23 in 10.0 mi Calm Calm - N/A   Clear
7:54 PM 26.1 °F - 21.0 °F 81% 30.23 in 10.0 mi Calm Calm - N/A   Clear
8:54 PM 23.0 °F 18.4 °F 19.9 °F 88% 30.25 in 10.0 mi SSW 3.5 mph - N/A   Mostly Cloudy
9:54 PM 26.1 °F 21.9 °F 21.0 °F 81% 30.25 in 10.0 mi SW 3.5 mph - N/A   Clear
10:54 PM 24.1 °F 16.0 °F 21.0 °F 88% 30.25 in 10.0 mi WSW 6.9 mph - N/A   Clear
11:54 PM 25.0 °F 15.5 °F 21.0 °F 85% 30.25 in 10.0 mi WSW 9.2 mph - N/A   Clear